Location: Newark
(43.9494°N, 6.8108°E)
Time: 20:58:35
(UTC+00:00)

A-11 Canister half - Pass Details

Date: 24 October 2019
Orbit: 1514 x 1685 km, 47.2° (Epoch: 20 November)

Event Time Altitude Azimuth Distance (km) Brightness Sun altitude
Rises 04:21:16 0° 283° (WNW) 4,865 - -18.1°
Reaches altitude 10° 04:24:28 10° 285° (WNW) 3,856 - -17.5°
Exits shadow 04:27:02 21° 287° (WNW) 3,066 10.0 -17.0°
Maximum altitude 04:34:18 79° 12° (NNE) 1,608 9.1 -15.7°
Drops below altitude 10° 04:43:46 10° 100° (E) 3,718 12.4 -14.0°
Sets 04:46:47 0° 102° (ESE) 4,684 13.4 -13.5°
